TimeEDT,TemperatureF,Dew PointF,Humidity,Sea Level PressureIn,VisibilityMPH,Wind Direction,Wind SpeedMPH,Gust SpeedMPH,PrecipitationIn,Events,Conditions,WindDirDegrees,DateUTC
12:56 AM,62.1,52.0,70,30.02,10.0,SE,5.8,-,N/A,,Clear,130,2012-10-25 04:56:00
1:56 AM,61.0,52.0,72,30.01,10.0,SE,5.8,-,N/A,,Clear,140,2012-10-25 05:56:00
2:56 AM,59.0,52.0,78,30.02,10.0,SE,8.1,-,N/A,,Clear,140,2012-10-25 06:56:00
3:56 AM,59.0,51.1,75,30.01,10.0,SE,4.6,-,N/A,,Clear,140,2012-10-25 07:56:00
4:56 AM,57.9,50.0,75,30.00,10.0,ESE,5.8,-,N/A,,Clear,110,2012-10-25 08:56:00
5:56 AM,55.9,50.0,80,30.01,10.0,SE,6.9,-,N/A,,Clear,130,2012-10-25 09:56:00
6:56 AM,55.9,48.9,77,30.01,10.0,SE,6.9,-,N/A,,Clear,140,2012-10-25 10:56:00
7:56 AM,55.4,48.2,77,30.03,10.0,SE,6.9,-,N/A,,Partly Cloudy,140,2012-10-25 11:56:00
8:56 AM,57.2,48.2,72,30.04,10.0,SE,4.6,-,N/A,,Partly Cloudy,130,2012-10-25 12:56:00
9:56 AM,64.0,52.0,65,30.05,10.0,ESE,4.6,-,N/A,,Partly Cloudy,120,2012-10-25 13:56:00
10:56 AM,68.0,54.0,61,30.06,10.0,ESE,4.6,-,N/A,,Scattered Clouds,120,2012-10-25 14:56:00
11:56 AM,75.9,57.0,52,30.04,10.0,SSW,9.2,-,N/A,,Scattered Clouds,210,2012-10-25 15:56:00
12:56 PM,75.2,55.4,50,30.03,10.0,SSW,15.0,-,N/A,,Scattered Clouds,210,2012-10-25 16:56:00
1:56 PM,80.1,55.0,42,29.98,10.0,SSW,12.7,23.0,N/A,,Scattered Clouds,200,2012-10-25 17:56:00
2:56 PM,80.1,54.0,40,29.96,10.0,South,13.8,-,N/A,,Partly Cloudy,190,2012-10-25 18:56:00
3:56 PM,81.0,53.1,38,29.94,10.0,South,16.1,-,N/A,,Partly Cloudy,180,2012-10-25 19:56:00
4:56 PM,80.1,53.1,39,29.93,10.0,South,15.0,-,N/A,,Scattered Clouds,190,2012-10-25 20:56:00
5:56 PM,79.0,52.0,39,29.94,10.0,SSW,12.7,-,N/A,,Scattered Clouds,200,2012-10-25 21:56:00
6:56 PM,77.0,53.1,43,29.94,10.0,South,9.2,-,N/A,,Scattered Clouds,170,2012-10-25 22:56:00
7:56 PM,73.9,54.0,50,29.96,10.0,South,8.1,-,N/A,,Scattered Clouds,170,2012-10-25 23:56:00
8:56 PM,73.4,55.4,53,29.96,10.0,South,5.8,-,N/A,,Scattered Clouds,180,2012-10-26 00:56:00
9:56 PM,71.1,54.0,55,29.96,10.0,South,6.9,-,N/A,,Partly Cloudy,180,2012-10-26 01:56:00
10:56 PM,72.0,54.0,53,29.96,10.0,South,8.1,-,N/A,,Partly Cloudy,190,2012-10-26 02:56:00
11:56 PM,66.9,55.0,66,29.96,10.0,SSE,5.8,-,N/A,,Partly Cloudy,150,2012-10-26 03:56:00